Wind_Speed
63 48 34 25 22 20 14 48 40 49 48 46 49 46 52 50 40 38 39 41 49 43 39 40 37 33 34 35 34 37 35 32 30 37 46 49 47 47 46 47 49 44 45
55 36 34 28 14 24 35 43 50 47 46 48 48 43 49 51 50 41 48 46 49 40 36 36 38 38 43 41 40 36 37 36 37 34 42 45 53 52 52 51 54 55 50
53 39 33 34 28 36 45 63 61 60 55 53 51 49 37 50 50 51 53 63 48 39 38 43 43 42 44 46 45 39 41 45 43 44 46 48 47 55 54 51 52 53 53
53 41 39 40 40 43 52 59 63 65 58 60 62 58 53 50 52 62 58 50 44 43 37 43 48 45 41 40 44 46 45 46 51 56 56 57 58 56 54 53 58 57 56
54 44 46 50 45 48 50 54 59 61 63 65 68 66 62 57 56 59 55 54 56 50 45 41 42 43 41 41 41 43 43 46 46 50 51 51 54 57 59 61 56 52 54
51 48 49 53 55 60 59 60 65 63 69 72 67 54 61 64 59 60 57 60 56 60 55 53 51 44 45 46 46 46 50 49 51 53 53 53 46 46 51 57 60 58 59
46 47 52 53 58 63 67 66 63 62 60 68 70 63 66 68 66 63 59 62 59 59 64 65 59 55 50 54 51 57 54 45 52 50 52 53 54 51 48 47 50 53 54
43 46 53 59 54 59 63 66 68 70 70 72 69 76 73 76 76 67 71 65 69 70 74 68 67 60 61 57 54 56 60 50 52 47 50 53 51 54 53 53 52 52 53
41 43 44 56 64 63 65 69 77 77 75 72 73 75 76 75 76 76 74 71 71 69 64 66 70 70 63 68 61 65 61 61 61 55 52 56 58 57 55 57 57 55 54
44 47 49 48 50 56 60 65 73 78 79 87 85 82 84 76 70 72 76 71 68 67 68 64 61 61 65 68 67 67 68 67 69 59 63 59 59 53 58 53 59 61 59
56 57 56 57 61 66 67 67 71 74 77 84 89 95 98 98 94 86 80 83 80 78 77 77 77 73 65 69 74 69 76 71 70 67 70 69 67 64 62 67 63 65 66
66 69 69 72 74 74 73 74 76 75 78 82 87 89 88 92 97 101 100 98 96 92 92 90 88 84 83 81 80 77 79 72 73 75 76 71 73 72 71 72 74 68 68
73 78 77 80 83 85 84 81 78 80 82 84 85 90 93 94 96 97 97 100 104 106 104 101 98 98 93 92 93 91 86 85 82 82 79 81 79 80 79 81 79 77 75
79 84 86 89 92 90 90 91 91 88 86 85 85 89 94 95 98 100 102 101 98 99 106 111 111 103 98 94 93 92 87 87 88 90 90 91 88 85 87 88 84 82 82
86 89 93 95 97 98 96 95 92 89 86 88 90 89 88 92 94 99 102 105 105 103 102 103 104 105 104 100 102 98 96 96 95 94 91 93 92 91 91 92 91 92 90
94 96 99 100 101 100 97 94 88 84 84 89 88 87 82 84 88 92 99 103 104 103 106 106 105 107 106 103 104 102 104 101 97 95 96 96 97 96 96 93 90 93 95
98 104 104 106 104 102 93 89 84 82 77 80 82 84 84 81 81 82 89 95 100 103 105 105 105 107 108 108 108 107 107 107 105 104 103 102 101 102 104 105 101 100 100
106 108 111 108 107 101 96 88 83 84 85 79 75 77 81 79 77 77 78 85 90 95 97 101 102 104 106 109 109 111 110 106 106 105 107 106 105 102 104 104 108 111 107
110 113 112 110 106 103 100 88 89 90 90 88 78 74 76 72 73 75 76 75 81 89 91 94 96 100 101 103 105 105 105 105 106 107 106 106 105 103 100 97 102 113 114
114 114 112 108 107 103 96 92 96 97 96 89 83 73 69 70 69 71 71 74 79 83 83 85 87 88 90 93 96 98 98 97 97 98 99 100 99 99 99 100 101 99 106
115 113 110 109 106 100 96 98 99 100 93 86 81 70 66 65 67 69 70 72 76 78 79 80 81 82 83 86 88 89 90 91 92 92 93 92 92 92 93 97 100 108 105
115 114 111 109 102 99 102 102 101 96 85 77 72 71 62 62 64 67 68 68 69 72 72 73 70 74 77 81 85 86 88 91 94 95 95 94 92 90 89 96 99 100 107
113 111 110 106 103 106 104 100 95 88 79 72 68 68 61 61 62 63 63 64 66 67 67 68 68 65 68 71 76 77 80 82 85 88 89 91 94 94 96 99 96 97 98
113 111 108 107 108 105 100 97 89 80 73 68 66 64 59 58 60 61 61 62 64 63 63 63 65 65 62 66 69 71 72 74 75 78 82 84 84 86 91 91 90 92 95
115 112 110 106 104 102 97 90 81 73 69 66 63 59 57 55 56 57 58 61 61 61 60 60 60 59 60 61 61 62 62 65 65 69 74 75 77 79 83 84 85 85 87
113 106 105 105 103 96 89 81 74 69 65 61 56 55 53 52 52 53 53 54 54 57 56 55 56 56 55 55 57 58 59 59 61 63 65 65 67 68 71 74 76 79 81
Wind_Direction
319 310 299 278 298 311 283 275 269 290 294 287 283 277 272 280 282 275 277 280 295 294 281 281 274 275 267 274 273 274 265 262 254 250 250 255 256 258 259 262 263 256 265
317 286 272 266 241 211 221 238 261 285 293 290 283 277 275 279 279 281 279 277 297 293 269 268 269 272 271 271 276 277 268 267 256 251 251 256 257 257 257 259 262 266 268
315 280 259 244 216 218 222 245 257 274 278 275 283 281 271 279 269 275 284 290 296 288 272 264 268 276 271 270 272 271 270 268 263 256 254 251 253 257 261 260 262 263 265
313 269 249 251 238 241 240 242 250 262 268 274 284 286 279 277 267 279 288 286 288 289 286 271 267 268 268 274 268 263 262 263 265 264 264 262 258 252 250 259 263 262 264
310 270 254 249 243 246 249 251 252 268 262 272 279 284 281 278 278 283 281 282 289 290 286 277 276 270 263 270 268 266 271 267 269 264 263 264 262 259 258 255 254 255 257
299 268 252 250 250 249 257 261 264 268 264 267 276 283 282 282 278 282 279 284 286 289 288 287 279 271 273 268 263 273 268 267 265 267 265 263 264 264 263 261 259 259 258
289 270 254 256 256 253 256 257 266 261 264 268 276 270 271 276 280 277 275 278 271 279 287 288 282 278 270 278 273 269 283 268 265 262 265 264 263 264 265 267 264 264 265
286 274 266 256 259 260 259 259 261 263 264 267 268 272 276 276 278 275 280 273 272 278 282 286 283 281 283 282 271 271 280 276 278 261 263 262 264 263 263 263 265 267 267
290 281 280 270 261 262 265 265 263 264 267 266 266 266 272 274 275 275 273 272 274 272 271 276 278 279 275 278 273 277 271 274 280 262 269 259 265 263 264 264 263 263 260
302 295 294 289 284 281 279 276 270 260 260 263 264 264 261 261 265 269 266 265 260 262 264 264 260 257 258 266 261 270 269 271 276 266 268 261 271 264 259 272 266 264 265
307 306 303 300 299 297 292 288 282 275 271 268 264 261 261 259 261 258 257 262 258 258 261 258 261 263 253 256 259 262 267 265 263 267 269 262 267 265 262 265 272 265 262
309 309 308 307 305 303 297 292 288 283 277 273 271 267 264 264 263 260 257 259 260 261 261 261 262 259 261 260 263 262 263 260 263 263 266 262 263 261 264 266 270 272 263
309 308 310 310 309 306 305 299 291 286 283 278 272 269 267 264 264 263 262 259 260 263 263 262 264 265 264 262 264 265 261 262 262 259 257 261 262 259 256 264 267 270 269
311 309 311 312 311 308 305 301 299 293 288 283 278 274 271 268 265 263 261 259 257 260 262 263 262 263 263 265 263 262 259 262 262 263 260 263 259 259 258 261 262 262 260
313 313 312 312 311 309 307 302 299 295 293 286 283 279 275 271 268 265 263 261 259 257 257 259 262 262 261 263 264 265 265 264 264 263 261 259 260 259 260 260 260 260 260
312 313 313 313 311 311 308 304 300 298 295 291 290 287 283 276 271 266 262 261 260 258 256 255 257 259 259 259 260 261 261 262 262 261 261 260 259 253 252 253 253 257 257
311 313 314 313 314 312 310 308 304 300 299 296 292 290 285 280 274 269 264 262 261 259 258 256 254 255 258 259 259 259 260 261 262 261 261 260 258 255 252 251 251 251 253
313 314 314 315 314 313 313 309 307 306 302 302 298 291 284 282 278 273 267 264 263 261 260 259 258 256 256 257 260 261 260 261 261 261 261 260 259 257 253 254 253 251 251
315 314 314 315 314 314 313 311 310 309 308 306 302 294 287 282 277 274 270 268 265 263 261 261 262 261 259 258 258 259 261 261 262 261 261 260 258 258 257 257 253 251 252
313 313 315 315 313 313 313 314 313 312 308 306 301 295 288 283 277 273 271 269 266 264 262 261 261 261 261 260 260 260 260 260 259 261 259 258 257 257 256 255 253 254 254
313 314 314 313 313 311 314 310 309 310 307 304 297 294 286 283 279 274 272 269 265 262 262 262 260 260 259 259 259 258 259 259 259 259 259 258 257 256 257 255 253 252 253
314 313 313 312 310 315 312 309 310 308 305 301 297 292 287 282 279 275 273 270 267 266 266 265 261 260 260 260 260 260 258 257 257 258 259 260 260 258 257 255 254 252 252
312 312 312 312 314 312 308 309 308 306 302 299 297 289 285 281 279 276 273 271 269 266 266 267 267 262 261 260 261 261 260 260 259 259 260 259 259 258 256 254 253 253 253
312 312 314 313 309 307 309 308 307 303 301 299 294 289 285 282 281 279 277 274 272 270 268 266 265 266 260 259 259 259 258 258 258 257 257 256 255 254 255 255 255 254 254
314 312 308 305 306 308 309 308 306 302 300 296 292 289 286 283 281 279 278 277 275 273 274 273 270 268 265 264 263 262 260 258 256 254 254 254 253 253 254 254 254 252 252
307 306 306 307 307 308 307 305 302 301 298 294 292 290 288 286 285 282 280 278 276 275 273 271 269 267 265 263 262 260 258 257 256 255 254 254 254 254 253 254 253 254 252
Height
10761 10756 10754 10753 10756 10755 10763 10748 10739 10731 10726 10724 10724 10722 10724 10723 10723 10723 10722 10721 10720 10717 10715 10713 10712 10711 10708 10709 10709 10710 10711 10712 10714 10715 10714 10714 10716 10717 10718 10719 10719 10720 10721
10748 10744 10743 10742 10745 10747 10748 10734 10732 10724 10721 10710 10711 10709 10712 10712 10713 10713 10712 10710 10709 10705 10706 10705 10702 10701 10701 10700 10700 10701 10703 10705 10706 10706 10707 10707 10706 10708 10709 10710 10709 10710 10711
10738 10733 10731 10734 10730 10732 10729 10724 10721 10717 10711 10701 10698 10697 10697 10700 10703 10700 10700 10700 10699 10697 10693 10691 10692 10692 10693 10692 10691 10691 10692 10693 10695 10696 10698 10698 10698 10697 10697 10699 10700 10700 10702
10723 10721 10721 10720 10721 10720 10718 10711 10707 10705 10697 10691 10689 10687 10688 10687 10686 10686 10685 10683 10686 10684 10683 10681 10680 10679 10680 10682 10682 10682 10683 10683 10684 10684 10686 10685 10685 10686 10689 10689 10689 10689 10690
10707 10707 10707 10706 10707 10703 10701 10700 10697 10693 10688 10682 10678 10675 10674 10672 10669 10669 10670 10668 10667 10671 10670 10670 10669 10668 10667 10669 10669 10670 10671 10670 10671 10670 10671 10671 10671 10672 10674 10675 10677 10677 10678
10692 10688 10688 10687 10688 10689 10685 10684 10680 10679 10678 10668 10665 10660 10659 10657 10655 10653 10653 10652 10650 10653 10656 10656 10657 10656 10655 10655 10655 10656 10656 10657 10658 10656 10657 10658 10659 10659 10660 10661 10663 10664 10666
10679 10676 10674 10673 10671 10670 10670 10670 10665 10663 10661 10654 10651 10647 10642 10640 10638 10637 10636 10636 10635 10635 10638 10639 10641 10642 10642 10640 10641 10641 10641 10642 10642 10642 10644 10645 10645 10646 10647 10648 10649 10650 10651
10666 10664 10660 10658 10658 10655 10653 10652 10650 10647 10648 10639 10637 10630 10626 10625 10623 10621 10620 10619 10617 10617 10619 10622 10622 10625 10623 10624 10623 10625 10625 10627 10627 10628 10630 10631 10631 10632 10632 10634 10635 10636 10636
10653 10651 10649 10645 10642 10639 10638 10635 10632 10628 10626 10623 10618 10614 10610 10607 10604 10599 10599 10598 10595 10598 10596 10599 10603 10606 10604 10605 10606 10607 10608 10609 10610 10613 10614 10616 10617 10617 10619 10620 10620 10621 10622
10640 10637 10633 10630 10627 10625 10621 10616 10611 10609 10604 10602 10600 10592 10588 10590 10585 10581 10579 10578 10578 10578 10577 10576 10579 10584 10584 10585 10583 10587 10589 10591 10591 10594 10596 10599 10600 10601 10603 10604 10604 10605 10607
10622 10621 10620 10617 10613 10607 10601 10596 10590 10585 10580 10575 10571 10571 10562 10562 10563 10562 10558 10555 10556 10557 10558 10558 10561 10563 10567 10565 10564 10567 10571 10570 10572 10574 10576 10579 10581 10583 10586 10587 10587 10590 10592
10604 10599 10597 10593 10589 10585 10579 10571 10563 10556 10549 10547 10542 10538 10537 10530 10530 10530 10534 10533 10528 10529 10532 10533 10535 10541 10548 10549 10543 10547 10548 10549 10550 10551 10555 10556 10559 10562 10565 10566 10569 10572 10574
10586 10579 10576 10568 10560 10553 10547 10542 10536 10529 10522 10514 10509 10504 10501 10502 10498 10497 10497 10507 10506 10501 10500 10503 10505 10511 10519 10523 10521 10522 10527 10529 10529 10530 10532 10534 10536 10539 10543 10543 10548 10551 10552
10570 10559 10550 10542 10533 10527 10517 10506 10502 10494 10488 10482 10478 10474 10467 10465 10465 10465 10463 10467 10475 10477 10472 10470 10474 10482 10488 10491 10489 10490 10497 10503 10505 10507 10507 10510 10513 10516 10519 10521 10525 10527 10530
10545 10538 10530 10521 10510 10499 10490 10478 10468 10461 10455 10449 10444 10440 10436 10434 10431 10428 10429 10429 10437 10444 10447 10446 10445 10448 10458 10462 10455 10464 10466 10471 10476 10482 10484 10486 10490 10493 10496 10499 10502 10503 10506
10520 10516 10506 10495 10487 10473 10460 10447 10438 10432 10423 10414 10410 10403 10402 10398 10393 10392 10392 10392 10397 10405 10411 10419 10420 10416 10423 10432 10429 10436 10432 10440 10447 10451 10455 10459 10462 10466 10471 10476 10476 10480 10482
10501 10490 10480 10469 10457 10445 10435 10422 10410 10402 10398 10386 10379 10370 10365 10363 10360 10359 10359 10359 10361 10367 10375 10382 10391 10391 10392 10395 10401 10403 10406 10410 10418 10420 10422 10425 10432 10437 10442 10448 10450 10453 10457
10478 10465 10455 10441 10428 10417 10407 10397 10386 10375 10367 10358 10352 10343 10335 10332 10330 10329 10329 10330 10331 10332 10341 10344 10352 10360 10367 10365 10366 10366 10375 10384 10383 10385 10389 10395 10401 10407 10414 10419 10423 10425 10429
10453 10441 10428 10416 10404 10391 10381 10371 10360 10353 10341 10330 10323 10316 10312 10306 10302 10301 10301 10303 10303 10303 10309 10313 10319 10325 10334 10338 10337 10338 10344 10349 10350 10353 10360 10362 10369 10376 10384 10389 10392 10395 10399
10429 10419 10406 10392 10380 10369 10357 10345 10336 10329 10317 10308 10294 10291 10286 10280 10278 10277 10276 10278 10279 10275 10279 10284 10290 10295 10300 10303 10306 10309 10314 10318 10318 10321 10326 10332 10340 10347 10353 10361 10364 10366 10370
10407 10392 10380 10371 10358 10348 10334 10321 10315 10307 10293 10285 10273 10269 10262 10259 10256 10253 10253 10254 10254 10252 10253 10258 10265 10267 10273 10274 10278 10281 10285 10289 10291 10294 10294 10301 10312 10321 10329 10329 10332 10337 10344
10383 10370 10357 10346 10335 10321 10312 10301 10290 10282 10270 10260 10253 10247 10243 10237 10234 10233 10232 10233 10234 10231 10232 10231 10242 10244 10247 10249 10248 10254 10259 10261 10266 10269 10269 10275 10283 10293 10299 10295 10300 10308 10314
10360 10348 10335 10320 10309 10299 10291 10280 10270 10258 10248 10238 10233 10228 10224 10218 10214 10213 10213 10213 10212 10211 10211 10210 10209 10220 10223 10225 10224 10228 10230 10235 10239 10241 10248 10251 10254 10261 10263 10262 10273 10280 10286
10336 10321 10307 10297 10289 10280 10268 10257 10246 10236 10226 10220 10215 10210 10207 10199 10196 10194 10193 10191 10190 10189 10190 10190 10188 10190 10198 10199 10200 10202 10205 10209 10215 10218 10218 10223 10228 10232 10230 10237 10248 10253 10258
10305 10294 10288 10279 10268 10255 10245 10235 10223 10215 10208 10203 10197 10193 10188 10183 10179 10176 10174 10172 10170 10167 10169 10169 10170 10171 10173 10176 10178 10181 10184 10187 10191 10191 10193 10199 10203 10206 10209 10215 10220 10225 10231
10289 10276 10264 10254 10245 10235 10223 10216 10207 10197 10193 10187 10180 10175 10171 10167 10163 10159 10157 10156 10153 10146 10148 10149 10149 10150 10153 10156 10158 10160 10162 10167 10168 10170 10174 10179 10180 10186 10189 10191 10196 10200 10207